FENGYUN 1C DEB

Satellite information

Favourite Embed

Satellite Type and Status

DEBRISIN ORBIT

Key statistics

Satellite FENGYUN 1C DEB at a glance.

Uptime

9714

Days in orbit

Revolutions

≈ 14.6

Per day

Orbit

SSO

Sun Synchronous Orbit

Inclination

98.7

Latest

Satellite identification and parameters

Extended collection of information and parameters for FENGYUN 1C DEB.

Object identification

Identified? True

Debris? True

Object name: FENGYUN 1C DEB

International designator: 1999-025BTP

Object number (NORAD): 31427

Object ID (CCSDS): 31427

Country: PEOPLES REPUBLIC OF CHINA (PRC)

Current information (Y/N): Y

RCS size: SMALL

Orbital parameters

Period: 98.721 minutes

Inclination: 98.669 deg

SMA: 7075.638 km

Apoapsis: 719.675 km

Periapsis: 675.332 km

RAAN: 95.3107 deg

Eccentricy: 0.00313345

Argument of periapsis: 20.4562 deg

Mean anomaly: 339.7883 deg

Mean motion: 14.58660809 rev/day

Mean motion (dot): 0.00017416 rev/day2

B* drag term: 0.0037138675 1/REarth

Two-line elements (TLE)

Creation date: Dec. 12, 2025, 10:14 a.m.

Reference frame: TEME

Reference center: EARTH

Epoch: Dec. 12, 2025, 6:34 a.m. UTC

TLE line 0: 0 FENGYUN 1C DEB

TLE line 1: 1 31427U 99025BTP 25346.27404745 .00017416 00000-0 37139-2 0 9999

TLE line 2: 2 31427 98.6690 95.3107 0031335 20.4562 339.7883 14.58660809968748

Live tracking on map

Real-time ground track for satellite FENGYUN 1C DEB.

In-orbit conjunctions

A list of the most updated potential collisions computed for object FENGYUN 1C DEB.

Target Orbit TCA Probability of collision Miss distance Type
COSMOS 968 LEO 2024-10-03 03:22:05 0.0001272551 269.0 (m) PAYLOAD
THORAD AGENA D DEB SSO 2024-09-27 00:56:27 0.0001154343 631.0 (m) DEBRIS

Associated space launch

Chinese polar orbiting meteorological satellite

FENGYUN 1C DEB was lifted into orbit during the mission ‘Long March 4B | Feng Yun 1C’, on board a Long March 4B space rocket.

The launch took place on May 10, 1999, 1:33 a.m. from Launch Complex 7.

For more information about the launch, click the button.

Launch to space Long March 4B | Feng Yun 1C
Long March 4B | Feng Yun 1C

Agency: N/A

Status: Launch Successful

Launch date: May 10, 1999, 1:33 a.m. UTC

Rocket: Long March 4B

Launch pad: Launch Complex 7

Location: Taiyuan Satellite Launch Center, People's Republic of China

...

Latest news about this satellite

There are no fresh news available about this satellite. Check back as we update our databases every day.


Newsletter sign-up

Weekly statistics, charts and insights to help you stay on top of the space industry.